TimeEDT,TemperatureF,Dew PointF,Humidity,Sea Level PressureIn,VisibilityMPH,Wind Direction,Wind SpeedMPH,Gust SpeedMPH,PrecipitationIn,Events,Conditions,WindDirDegrees,DateUTC
12:14 AM,16.3,15.1,95,30.02,5.0,Calm,Calm,-,N/A,,Scattered Clouds,0,2013-03-17 04:14:00
12:34 AM,14.2,13.1,95,30.03,3.0,Calm,Calm,-,N/A,,Clear,0,2013-03-17 04:34:00
12:55 AM,8.4,6.8,93,30.03,0.5,Calm,Calm,-,N/A,Fog,Light Freezing Fog,0,2013-03-17 04:55:00
1:14 AM,7.7,5.9,92,30.03,3.0,Calm,Calm,-,N/A,,Mostly Cloudy,0,2013-03-17 05:14:00
1:34 AM,8.6,7.0,93,30.02,0.8,West,5.8,-,N/A,,Overcast,270,2013-03-17 05:34:00
1:55 AM,12.7,11.1,93,30.01,10.0,SW,4.6,-,N/A,,Mostly Cloudy,230,2013-03-17 05:55:00
2:14 AM,11.1,9.0,91,30.02,10.0,WSW,4.6,-,N/A,,Mostly Cloudy,250,2013-03-17 06:14:00
2:34 AM,11.8,10.0,92,30.03,10.0,SW,3.5,-,N/A,,Overcast,230,2013-03-17 06:34:00
2:55 AM,14.0,12.2,93,30.03,10.0,SW,3.5,-,N/A,,Overcast,230,2013-03-17 06:55:00
3:14 AM,13.8,12.2,93,30.04,10.0,WSW,3.5,-,N/A,,Overcast,240,2013-03-17 07:14:00
3:34 AM,15.1,13.3,93,30.06,3.0,NW,5.8,-,N/A,Snow,Light Snow,310,2013-03-17 07:34:00
3:54 AM,14.7,12.6,91,30.06,10.0,West,6.9,-,N/A,,Overcast,270,2013-03-17 07:54:00
4:14 AM,14.2,12.0,91,30.07,10.0,WNW,5.8,-,N/A,,Overcast,290,2013-03-17 08:14:00
4:34 AM,15.3,12.9,90,30.08,10.0,NW,6.9,-,N/A,,Overcast,320,2013-03-17 08:34:00
4:54 AM,17.2,14.0,87,30.10,10.0,NW,10.4,-,N/A,,Mostly Cloudy,320,2013-03-17 08:54:00
5:14 AM,17.4,13.3,84,30.10,10.0,NW,10.4,-,N/A,,Scattered Clouds,320,2013-03-17 09:14:00
5:34 AM,17.1,12.7,83,30.12,10.0,NW,11.5,17.3,N/A,,Clear,320,2013-03-17 09:34:00
5:54 AM,17.2,12.6,82,30.13,10.0,NW,10.4,-,N/A,,Mostly Cloudy,320,2013-03-17 09:54:00
6:14 AM,16.9,12.9,84,30.14,5.0,NNW,10.4,-,N/A,Snow,Light Snow,330,2013-03-17 10:14:00
6:34 AM,16.3,12.2,84,30.16,10.0,NNW,10.4,-,N/A,,Scattered Clouds,340,2013-03-17 10:34:00
6:54 AM,15.6,10.8,81,30.17,10.0,NNW,10.4,-,N/A,,Clear,340,2013-03-17 10:54:00
7:14 AM,14.7,8.8,77,30.18,10.0,NNW,5.8,-,N/A,,Clear,330,2013-03-17 11:14:00
7:35 AM,11.5,7.0,82,30.19,10.0,NW,6.9,-,N/A,,Clear,320,2013-03-17 11:35:00
7:54 AM,10.0,5.4,81,30.21,10.0,NW,6.9,-,N/A,,Clear,320,2013-03-17 11:54:00
8:14 AM,10.0,4.6,79,30.22,10.0,NW,6.9,-,N/A,,Clear,320,2013-03-17 12:14:00
8:35 AM,11.5,4.3,73,30.23,10.0,NW,6.9,-,N/A,,Clear,320,2013-03-17 12:35:00
8:54 AM,13.3,5.2,70,30.24,10.0,NNW,6.9,-,N/A,,Clear,330,2013-03-17 12:54:00
9:14 AM,15.1,5.2,65,30.24,10.0,NNW,8.1,-,N/A,,Clear,340,2013-03-17 13:14:00
9:35 AM,16.2,5.5,63,30.24,10.0,North,12.7,18.4,N/A,,Clear,350,2013-03-17 13:35:00
9:54 AM,16.7,5.5,62,30.26,10.0,North,11.5,16.1,N/A,,Clear,360,2013-03-17 13:54:00
10:14 AM,17.2,5.7,61,30.27,10.0,NNW,12.7,-,N/A,,Clear,340,2013-03-17 14:14:00
10:35 AM,17.8,5.5,59,30.27,10.0,North,10.4,-,N/A,,Clear,360,2013-03-17 14:35:00
10:54 AM,18.0,4.8,57,30.29,10.0,North,8.1,-,N/A,,Clear,10,2013-03-17 14:54:00
11:14 AM,18.5,4.1,54,30.30,10.0,North,5.8,-,N/A,,Scattered Clouds,10,2013-03-17 15:14:00
11:34 AM,18.9,5.7,57,30.30,10.0,North,6.9,-,N/A,,Clear,10,2013-03-17 15:34:00
11:54 AM,19.0,4.5,53,30.30,10.0,NE,3.5,-,N/A,,Clear,40,2013-03-17 15:54:00
12:14 PM,19.4,5.5,55,30.30,10.0,NNE,9.2,-,N/A,,Scattered Clouds,20,2013-03-17 16:14:00
12:34 PM,19.9,5.0,52,30.31,10.0,NNE,3.5,-,N/A,,Clear,20,2013-03-17 16:34:00
12:54 PM,20.3,5.4,52,30.31,10.0,NNE,3.5,-,N/A,,Clear,30,2013-03-17 16:54:00
1:14 PM,20.3,7.0,56,30.31,10.0,ENE,5.8,-,N/A,,Clear,60,2013-03-17 17:14:00
1:34 PM,20.7,8.8,60,30.31,10.0,ENE,8.1,-,N/A,,Clear,70,2013-03-17 17:34:00
1:54 PM,20.7,9.7,63,30.31,10.0,ENE,6.9,-,N/A,,Clear,70,2013-03-17 17:54:00
2:14 PM,21.0,10.4,64,30.31,10.0,ENE,9.2,-,N/A,,Clear,60,2013-03-17 18:14:00
2:34 PM,21.0,10.6,64,30.30,10.0,ENE,10.4,-,N/A,,Clear,60,2013-03-17 18:34:00
2:54 PM,21.2,10.2,63,30.30,10.0,East,8.1,-,N/A,,Clear,90,2013-03-17 18:54:00
3:14 PM,21.2,10.0,62,30.30,10.0,ENE,8.1,-,N/A,,Clear,70,2013-03-17 19:14:00
3:34 PM,21.4,10.8,64,30.28,10.0,East,8.1,-,N/A,,Clear,90,2013-03-17 19:34:00
3:54 PM,20.8,10.4,64,30.28,10.0,East,11.5,-,N/A,,Clear,80,2013-03-17 19:54:00
4:15 PM,21.4,11.1,65,30.28,10.0,ENE,11.5,-,N/A,,Clear,70,2013-03-17 20:15:00
4:34 PM,21.2,11.3,66,30.27,10.0,East,10.4,-,N/A,,Clear,80,2013-03-17 20:34:00
4:54 PM,21.2,10.8,64,30.27,10.0,East,9.2,-,N/A,,Clear,90,2013-03-17 20:54:00
5:15 PM,21.0,10.6,64,30.27,10.0,East,9.2,-,N/A,,Clear,90,2013-03-17 21:15:00
5:34 PM,21.0,10.6,64,30.27,10.0,East,8.1,-,N/A,,Clear,80,2013-03-17 21:34:00
5:54 PM,20.8,9.9,63,30.28,10.0,East,8.1,-,N/A,,Clear,90,2013-03-17 21:54:00
6:15 PM,20.7,10.0,64,30.28,10.0,East,5.8,-,N/A,,Clear,80,2013-03-17 22:15:00
6:34 PM,20.7,10.0,64,30.28,10.0,East,5.8,-,N/A,,Clear,90,2013-03-17 22:34:00
6:54 PM,20.3,9.9,64,30.29,10.0,ENE,5.8,-,N/A,,Clear,60,2013-03-17 22:54:00
7:15 PM,20.1,10.2,66,30.28,10.0,East,5.8,-,N/A,,Clear,90,2013-03-17 23:15:00
7:34 PM,19.9,9.5,64,30.28,10.0,East,4.6,-,N/A,,Clear,90,2013-03-17 23:34:00
7:54 PM,19.8,9.0,63,30.27,10.0,ESE,4.6,-,N/A,,Clear,110,2013-03-17 23:54:00
8:14 PM,19.4,8.6,63,30.29,10.0,Calm,Calm,-,N/A,,Clear,0,2013-03-18 00:14:00
8:34 PM,17.8,7.9,65,30.28,10.0,Calm,Calm,-,N/A,,Clear,0,2013-03-18 00:34:00
8:54 PM,16.9,8.1,68,30.28,10.0,Calm,Calm,-,N/A,,Clear,0,2013-03-18 00:54:00
9:14 PM,13.3,6.4,74,30.29,10.0,Calm,Calm,-,N/A,,Clear,0,2013-03-18 01:14:00
9:34 PM,12.4,7.2,80,30.29,10.0,Calm,Calm,-,N/A,,Clear,0,2013-03-18 01:34:00
9:54 PM,9.9,4.8,80,30.28,10.0,Calm,Calm,-,N/A,,Clear,0,2013-03-18 01:54:00
10:15 PM,14.0,7.9,77,30.26,10.0,ESE,4.6,-,N/A,,Clear,110,2013-03-18 02:15:00
10:34 PM,19.9,10.4,67,30.26,10.0,ESE,4.6,-,N/A,,Clear,120,2013-03-18 02:34:00
10:54 PM,9.9,4.3,78,30.26,10.0,Calm,Calm,-,N/A,,Clear,0,2013-03-18 02:54:00
11:14 PM,6.6,2.3,82,30.26,10.0,Calm,Calm,-,N/A,,Clear,0,2013-03-18 03:14:00
11:34 PM,8.6,3.9,81,30.26,10.0,SE,3.5,-,N/A,,Clear,130,2013-03-18 03:34:00
11:54 PM,18.3,10.0,70,30.26,10.0,SE,3.5,-,N/A,,Clear,140,2013-03-18 03:54:00